Location: Milton Keynes
(52.0316°N, 0.7531°W)
Time: 14:10:48
(UTC+00:00)

Tiangong 2 - Pass Details

Date: 24 January 2019
Orbit: 380 x 390 km, 42.8° (Epoch: 21 February)

Event Time Altitude Azimuth Distance (km) Brightness Sun altitude
Exits shadow 05:44:54 14° 186° (S) 1,185 3.5 -19.6°
Drops below altitude 10° 05:46:33 10° 155° (SSE) 1,410 4.3 -19.4°
Sets 05:49:17 0° 129° (SE) 2,266 5.9 -19.0°
